AirNav   Everest Fuels
 
 466 users online  

PS33 Patriot American Park Heliport
Allentown, Pennsylvania, USA

GOING TO ALLENTOWN?


FAA INFORMATION EFFECTIVE 26 MARCH 2020

Location

FAA Identifier: PS33
Lat/Long: 40-37-59.0000N 075-27-31.0000W
40-37.983333N 075-27.516667W
40.6330556,-75.4586111
(estimated)
Elevation: 358 ft. / 109 m
From city: 2 miles NE of ALLENTOWN, PA
Time zone: UTC -4 (UTC -5 during Standard Time)
Zip code: 18103

Heliport Operations

Heliport use: Private use. Permission required prior to landing
Activation date: 10/2003
Control tower: no
ARTCC: NEW YORK CENTER
FSS: WILLIAMSPORT FLIGHT SERVICE STATION
Attendance: UNATNDD
Wind indicator: lighted
Segmented circle: no
Lights: FOR PERIMETER LGTS CALL 610-712-5951.

Heliport Communications

WX ASOS at ABE (1.4 nm NE): 126.975 (610-266-3579)
WX AWOS-3 at XLL (4 nm S): 127.875 (610-231-3111)
WX AWOS-3 at UKT (12 nm S): 119.475 (215-538-7610)
WX AWOS-3 at CKZ (17 nm SE): 126.325 (215-257-7291)
WX AWOS-3PT at 22N (17 nm NW): 119.350 (570-386-3423)

Nearby radio navigation aids

VOR radial/distance  VOR name  Freq  Var
FJCr192/5.6ALLENTOWN VORTAC117.5010W
ETXr082/10.7EAST TEXAS VOR/DME110.2009W
PTWr020/25.1POTTSTOWN VORTAC116.5009W
BWZr262/30.6BROADWAY VOR/DME114.2011W
SBJr285/32.8SOLBERG VOR/DME112.9010W
ARDr322/33.9YARDLEY VOR/DME108.2010W
STWr242/34.5STILLWATER VOR/DME109.6011W
LVZr175/39.8WILKES-BARRE VORTAC111.6010W

 
NDB name  Hdg/Dist  Freq  Var  ID
AMBLER357/31.427512WING .. -. --.

Heliport Services

Runway Information

Helipad H1

Dimensions: 50 x 80 ft. / 15 x 24 m
Surface: concrete
Runway edge lights: PERI
Traffic pattern: leftleft

Heliport Ownership and Management from official FAA records

Ownership: Privately-owned
Owner: PATRIOT AMERICAN PARKWAY, LP
1200 LIBERTY RIDGE DR; SUITE 115
WAYNE, PA 19087
Phone (484) 615-1204
Manager: MICHAEL C. KOLAR
1200 LIBERTY RIDGE DR - SUITE 115
WAYNE, PA 19087
Phone (484) 615-1204

Additional Remarks

A52-H1 RY H1 65 FT TREES 220 FT & PLINES & POLES 520 FT WEST.
FOR CD CTC ALLENTOWN APCH AT 800-728-6322.

Instrument Procedures

There are no published instrument procedures at PS33.

Some nearby airports with instrument procedures:

KABE - Lehigh Valley International Airport (1 nm NE)
KXLL - Allentown Queen City Municipal Airport (4 nm S)
N43 - Braden Airpark (12 nm NE)
KUKT - Quakertown Airport (12 nm S)
KCKZ - Pennridge Airport (17 nm SE)
22N - Jake Arner Memorial Airport (17 nm NW)
 
Loc | Ops | Rwys | IFR | FBO | Links
Com | Nav | Svcs | Stats | Notes
Area around PS33 (Patriot American Park Heliport)
 
Road maps at: MapQuest Bing Google
 
Aerial photo
No photo
 
Sectional chart

 
Airport distance calculator
Flying to Patriot American Park Heliport? Find the distance to fly.

From to PS33

Sunrise and sunset
Times for 06-Apr-2020
 Local
(UTC-4)
 Zulu
(UTC)
Morning civil twilight06:0910:09
Sunrise06:3710:37
Sunset19:3123:31
Evening civil twilight19:5923:59

Current date and time
Zulu (UTC)  06-Apr-2020 11:24:29
Local (UTC-4)  06-Apr-2020 07:24:29
 
METAR
KABE 061051Z 00000KT 10SM CLR 07/01 A3006 RMK AO2 SLP180 T00720011 $
KXLL 
4nm S 
061055Z AUTO 32005KT 10SM CLR 06/02 A3007 RMK AO2
KUKT 
12nm S 
061100Z AUTO 00000KT 10SM FEW120 07/04 A3006 RMK A01
KCKZ 
17nm SE 
061055Z AUTO 35004KT 10SM FEW050 SCT120 07/03 A3006 RMK AO2
K22N 
17nm NW 
061055Z AUTO 00000KT 10SM CLR 05/02 A3008 RMK AO2
TAF
KABE 060520Z 0606/0706 35006KT P6SM VCSH BKN060 FM060900 34008KT P6SM FEW100 FEW200 FM070000 VRB03KT P6SM SCT200 BKN250
NOTAMs
Click for the latest NOTAMs
NOTAMs are issued by the DoD/FAA and will open in a separate window not controlled by AirNav.

 

 
 

Would you like to see your business listed on this page?

 If your business provides an interesting product or service to pilots, flight crews, aircraft, or users of the Patriot American Park Heliport, you should consider listing it here.  To start the listing process, click on the button below
 
Add a business
 

Other Pages about Patriot American Park Heliport

Update a link
 
Copyright © AirNav, LLC. All rights reserved. Privacy Policy  Contact